GORIZONT 32 [-]

Last updated on Wed Jun 28 2023 00:02:55 GMT+0000 (Coordinated Universal Time)

1 23880U 96034A 23178.49471024 -.00000278 00000+0 00000+0 0 9991 2 23880 14.4507 3.1380 0007227 6.5985 226.6623 1.00208114 99169
UTC large
Height (km)
Speed (km/s)
/
Latitude / Longitude
Inclination (degrees)
Orbital Period (minutes)
Azimuth
Elevation
Range (km)
Doppler Factor

Next 0 passes for location: London (51.5072 / 0.1276)

Sorry there are no passes over London.
GORIZONT 32 [-]